| time (UTC) | temp F | wind direction | speed MPH | gust MPH | rain 1hr in | rain 24hr in | rain mn in | humidity % | barometer mb |
| 20260505111532 | 59 | 9 | 0.0 | 0.0 | 0.00 | 1.03 | 1.03 | 98 | 1008.7 |
| 20260505111028 | 59 | 15 | 0.0 | 0.0 | 0.00 | 1.03 | 1.03 | 98 | 1008.7 |
| 20260505110525 | 59 | 15 | 0.0 | 0.0 | 0.00 | 1.03 | 1.03 | 98 | 1008.7 |
| 20260505101957 | 59 | 306 | 0.0 | 0.0 | 0.00 | 1.03 | 1.03 | 98 | 1007.9 |
| 20260505101455 | 59 | 49 | 0.0 | 0.0 | 0.00 | 1.03 | 1.03 | 98 | 1008.3 |
| 20260505100951 | 59 | 8 | 0.0 | 0.0 | 0.00 | 1.03 | 1.03 | 98 | 1008.8 |
| 20260505100449 | 59 | 19 | 0.0 | 0.0 | 0.17 | 1.03 | 1.03 | 98 | 1008.8 |
| 20260505095944 | 59 | 47 | 0.0 | 0.0 | 0.17 | 1.03 | 1.03 | 98 | 1008.3 |
| 20260505095441 | 59 | 60 | 0.0 | 0.0 | 0.00 | 1.00 | 1.00 | 97 | 1008.7 |
| 20260505094938 | 59 | 40 | 0.0 | 0.0 | 0.07 | 1.00 | 1.00 | 97 | 1008.7 |
| 20260505094435 | 59 | 8 | 0.0 | 0.0 | 0.14 | 1.00 | 1.00 | 97 | 1007.8 |
| 20260505093931 | 59 | 43 | 0.0 | 0.0 | 0.12 | 0.99 | 0.99 | 97 | 1007.7 |
| 20260505093428 | 59 | 59 | 0.0 | 1.0 | 0.17 | 0.98 | 0.98 | 97 | 1007.8 |
| 20260505092925 | 59 | 28 | 0.0 | 1.0 | 0.28 | 0.96 | 0.96 | 96 | 1008.6 |
| 20260505092423 | 59 | 342 | 1.0 | 1.0 | 1.21 | 0.94 | 0.94 | 96 | 1008.1 |
| 20260505091920 | 59 | 99 | 0.0 | 2.0 | 2.69 | 0.90 | 0.90 | 96 | 1008.5 |
| 20260505091417 | 59 | 62 | 1.0 | 3.0 | 3.00 | 0.69 | 0.69 | 95 | 1009.0 |
| 20260505090915 | 59 | 33 | 0.0 | 4.0 | 1.37 | 0.37 | 0.37 | 94 | 1009.1 |
| 20260505090413 | 59 | 124 | 1.0 | 2.0 | 0.31 | 0.19 | 0.19 | 95 | 1008.5 |
| 20260505085910 | 59 | 350 | 2.0 | 3.0 | 0.07 | 0.15 | 0.15 | 94 | 1006.7 |
| 20260505085408 | 59 | 50 | 0.0 | 2.0 | 0.05 | 0.14 | 0.14 | 94 | 1005.3 |
| 20260505084906 | 59 | 29 | 0.0 | 2.0 | 0.19 | 0.14 | 0.14 | 93 | 1005.4 |
| 20260505084404 | 59 | 43 | 1.0 | 3.0 | 0.19 | 0.13 | 0.13 | 92 | 1006.0 |
| 20260505083901 | 59 | 323 | 2.0 | 3.0 | 0.12 | 0.11 | 0.11 | 93 | 1007.2 |
| 20260505083359 | 59 | 353 | 0.0 | 1.0 | 0.12 | 0.10 | 0.10 | 93 | 1006.2 |
| 20260505082855 | 59 | 338 | 2.0 | 2.0 | 0.17 | 0.09 | 0.09 | 93 | 1007.3 |
| 20260505082351 | 60 | 23 | 0.0 | 1.0 | 0.12 | 0.07 | 0.07 | 92 | 1007.5 |
| 20260505081848 | 60 | 44 | 0.0 | 0.0 | 0.12 | 0.06 | 0.06 | 90 | 1007.5 |
| 20260505081345 | 61 | 8 | 1.0 | 3.0 | 0.12 | 0.05 | 0.05 | 89 | 1007.7 |
| 20260505080841 | 61 | 36 | 0.0 | 2.0 | 0.12 | 0.04 | 0.04 | 84 | 1007.9 |
| 20260505080337 | 61 | 343 | 1.0 | 2.0 | 0.12 | 0.03 | 0.03 | 85 | 1007.9 |
| 20260505075833 | 62 | 340 | 2.0 | 6.0 | 0.12 | 0.02 | 0.02 | 83 | 1007.5 |
| 20260505075330 | 62 | 329 | 0.0 | 7.0 | 0.05 | 0.01 | 0.01 | 80 | 1007.1 |
| 20260505074827 | 62 | 348 | 1.0 | 4.0 | 0.00 | 0.00 | 0.00 | 81 | 1006.8 |
| 20260505074324 | 63 | 328 | 2.0 | 3.0 | 0.00 | 0.00 | 0.00 | 77 | 1006.6 |
| 20260505073822 | 64 | 76 | 3.0 | 4.0 | 0.00 | 0.00 | 0.00 | 74 | 1006.7 |
| 20260505073320 | 65 | 56 | 1.0 | 6.0 | 0.00 | 0.00 | 0.00 | 69 | 1007.0 |
| 20260505072816 | 65 | 1 | 0.0 | 8.0 | 0.00 | 0.00 | 0.00 | 67 | 1007.2 |
| 20260505072312 | 65 | 52 | 0.0 | 3.0 | 0.00 | 0.00 | 0.00 | 66 | 1007.0 |
| 20260505071808 | 65 | 304 | 1.0 | 4.0 | 0.00 | 0.00 | 0.00 | 66 | 1007.3 |
| 20260505071305 | 65 | 16 | 0.0 | 1.0 | 0.00 | 0.00 | 0.00 | 66 | 1007.6 |
| 20260505070803 | 66 | 349 | 0.0 | 2.0 | 0.00 | 0.00 | 0.00 | 65 | 1007.9 |
| 20260505070259 | 66 | 314 | 4.0 | 6.0 | 0.00 | 0.00 | 0.00 | 65 | 1008.2 |
| 20260505065754 | 65 | 33 | 1.0 | 1.0 | 0.00 | 0.00 | 0.00 | 65 | 1008.1 |
| 20260505065252 | 66 | 99 | 1.0 | 2.0 | 0.00 | 0.00 | 0.00 | 66 | 1008.3 |
| 20260505064749 | 66 | 2 | 2.0 | 4.0 | 0.00 | 0.00 | 0.00 | 65 | 1008.3 |
| 20260505064246 | 66 | 297 | 4.0 | 8.0 | 0.00 | 0.00 | 0.00 | 65 | 1008.5 |
| 20260505063744 | 66 | 316 | 3.0 | 4.0 | 0.00 | 0.00 | 0.00 | 65 | 1008.9 |
| 20260505063240 | 65 | 301 | 2.0 | 2.0 | 0.00 | 0.00 | 0.00 | 66 | 1008.7 |
| 20260505062736 | 65 | 355 | 2.0 | 3.0 | 0.00 | 0.00 | 0.00 | 67 | 1008.4 |
| 20260505062234 | 65 | 344 | 1.0 | 3.0 | 0.00 | 0.00 | 0.00 | 66 | 1008.7 |
| 20260505061731 | 65 | 57 | 2.0 | 6.0 | 0.00 | 0.00 | 0.00 | 66 | 1008.8 |
| 20260505061229 | 65 | 290 | 2.0 | 3.0 | 0.00 | 0.00 | 0.00 | 66 | 1008.6 |
| 20260505060726 | 65 | 40 | 0.0 | 3.0 | 0.00 | 0.00 | 0.00 | 66 | 1008.6 |
| 20260505060223 | 65 | 61 | 1.0 | 2.0 | 0.00 | 0.00 | 0.00 | 66 | 1008.9 |
| 20260505055718 | 65 | 265 | 1.0 | 8.0 | 0.00 | 0.00 | 0.00 | 65 | 1009.1 |
| 20260505055215 | 65 | 342 | 1.0 | 2.0 | 0.00 | 0.00 | 0.00 | 66 | 1009.1 |
| 20260505054712 | 65 | 19 | 1.0 | 2.0 | 0.00 | 0.00 | 0.00 | 66 | 1009.1 |
| 20260505054210 | 65 | 30 | 2.0 | 3.0 | 0.00 | 0.00 | 0.00 | 66 | 1009.0 |
| 20260505053708 | 65 | 114 | 4.0 | 4.0 | 0.00 | 0.00 | 0.00 | 66 | 1009.0 |
| 20260505053204 | 65 | 305 | 4.0 | 7.0 | 0.00 | 0.00 | 0.00 | 66 | 1009.0 |
| 20260505052701 | 65 | 28 | 1.0 | 3.0 | 0.00 | 0.00 | 0.00 | 67 | 1008.8 |
| 20260505052158 | 65 | 90 | 4.0 | 4.0 | 0.00 | 0.00 | 0.00 | 67 | 1008.9 |
| 20260505051655 | 65 | 32 | 0.0 | 2.0 | 0.00 | 0.00 | 0.00 | 67 | 1009.2 |
| 20260505051154 | 66 | 44 | 0.0 | 1.0 | 0.00 | 0.00 | 0.00 | 66 | 1009.3 |
| 20260505050651 | 65 | 318 | 1.0 | 2.0 | 0.00 | 0.00 | 0.00 | 66 | 1009.3 |
| 20260505050149 | 66 | 53 | 2.0 | 3.0 | 0.00 | 0.00 | 0.00 | 66 | 1009.3 |
| 20260505041619 | 66 | 173 | 2.0 | 4.0 | 0.00 | 0.00 | 0.00 | 65 | 1009.8 |
| 20260505041116 | 66 | 59 | 1.0 | 6.0 | 0.00 | 0.00 | 0.00 | 65 | 1010.0 |
| 20260505040613 | 66 | 46 | 1.0 | 2.0 | 0.00 | 0.00 | 0.00 | 65 | 1010.0 |
| 20260505040110 | 66 | 87 | 2.0 | 3.0 | 0.00 | 0.00 | 0.00 | 65 | 1010.2 |
| 20260505035606 | 66 | 66 | 2.0 | 2.0 | 0.00 | 0.00 | 0.00 | 66 | 1010.1 |
| 20260505035103 | 67 | 72 | 0.0 | 3.0 | 0.00 | 0.00 | 0.00 | 65 | 1010.1 |
| 20260505034559 | 67 | 317 | 2.0 | 6.0 | 0.00 | 0.00 | 0.00 | 65 | 1010.2 |
| 20260505034056 | 67 | 13 | 0.0 | 7.0 | 0.00 | 0.00 | 0.00 | 64 | 1010.1 |
| 20260505033553 | 66 | 50 | 1.0 | 2.0 | 0.00 | 0.00 | 0.00 | 64 | 1010.3 |
| 20260505033052 | 66 | 50 | 0.0 | 7.0 | 0.00 | 0.00 | 0.00 | 66 | 1010.2 |
| 20260505032549 | 67 | 103 | 4.0 | 7.0 | 0.00 | 0.00 | 0.00 | 64 | 1010.0 |
| 20260505032045 | 66 | 9 | 0.0 | 1.0 | 0.00 | 0.00 | 0.00 | 65 | 1010.2 |
| 20260505031542 | 67 | 77 | 1.0 | 3.0 | 0.00 | 0.00 | 0.00 | 64 | 1010.2 |
| 20260505031039 | 66 | 221 | 2.0 | 3.0 | 0.00 | 0.00 | 0.00 | 65 | 1010.0 |
| 20260505030536 | 67 | 187 | 2.0 | 2.0 | 0.00 | 0.00 | 0.00 | 65 | 1009.9 |
| 20260505030032 | 67 | 16 | 1.0 | 8.0 | 0.00 | 0.00 | 0.00 | 64 | 1009.9 |
| 20260505025528 | 67 | 306 | 3.0 | 4.0 | 0.00 | 0.00 | 0.00 | 64 | 1010.1 |
| 20260505025027 | 67 | 65 | 1.0 | 3.0 | 0.00 | 0.00 | 0.00 | 65 | 1010.0 |
| 20260505024523 | 67 | 43 | 0.0 | 2.0 | 0.00 | 0.00 | 0.00 | 65 | 1009.9 |
| 20260505024020 | 67 | 18 | 2.0 | 4.0 | 0.00 | 0.00 | 0.00 | 63 | 1009.6 |
| 20260505023517 | 67 | 74 | 2.0 | 3.0 | 0.00 | 0.00 | 0.00 | 64 | 1009.5 |
| 20260505023015 | 67 | 66 | 1.0 | 2.0 | 0.00 | 0.00 | 0.00 | 63 | 1009.5 |
| 20260505022513 | 67 | 326 | 0.0 | 2.0 | 0.00 | 0.00 | 0.00 | 63 | 1009.3 |
| 20260505022010 | 67 | 35 | 0.0 | 0.0 | 0.00 | 0.00 | 0.00 | 63 | 1009.3 |
| 20260505021506 | 67 | 110 | 1.0 | 6.0 | 0.00 | 0.00 | 0.00 | 63 | 1009.4 |
| 20260505021002 | 67 | 9 | 3.0 | 3.0 | 0.00 | 0.00 | 0.00 | 62 | 1009.4 |
| 20260505020457 | 67 | 96 | 3.0 | 4.0 | 0.00 | 0.00 | 0.00 | 63 | 1009.2 |
| 20260505015954 | 66 | 351 | 2.0 | 7.0 | 0.00 | 0.00 | 0.00 | 63 | 1009.4 |
| 20260505015451 | 66 | 330 | 1.0 | 1.0 | 0.00 | 0.00 | 0.00 | 64 | 1009.3 |
| 20260505014948 | 67 | 49 | 0.0 | 0.0 | 0.00 | 0.00 | 0.00 | 64 | 1009.4 |
| 20260505014445 | 67 | 50 | 1.0 | 2.0 | 0.00 | 0.00 | 0.00 | 62 | 1009.1 |
| 20260505013942 | 67 | 11 | 2.0 | 7.0 | 0.00 | 0.00 | 0.00 | 62 | 1009.1 |
| 20260505013439 | 67 | 17 | 2.0 | 3.0 | 0.00 | 0.00 | 0.00 | 63 | 1009.1 |
| 20260505012937 | 67 | 334 | 3.0 | 4.0 | 0.00 | 0.00 | 0.00 | 63 | 1009.1 |
| 20260505012435 | 67 | 153 | 0.0 | 2.0 | 0.00 | 0.00 | 0.00 | 63 | 1009.0 |
| 20260505011931 | 68 | 13 | 0.0 | 1.0 | 0.00 | 0.00 | 0.00 | 61 | 1008.8 |
| 20260505011427 | 68 | 49 | 2.0 | 6.0 | 0.00 | 0.00 | 0.00 | 61 | 1009.1 |
| 20260505010924 | 68 | 316 | 2.0 | 3.0 | 0.00 | 0.00 | 0.00 | 61 | 1009.1 |
| 20260505010420 | 68 | 66 | 3.0 | 7.0 | 0.00 | 0.00 | 0.00 | 61 | 1008.9 |
| 20260505005916 | 68 | 89 | 0.0 | 2.0 | 0.00 | 0.00 | 0.00 | 60 | 1008.9 |
| 20260505005413 | 69 | 5 | 0.0 | 2.0 | 0.00 | 0.00 | 0.00 | 60 | 1008.8 |
| 20260505004911 | 68 | 56 | 1.0 | 4.0 | 0.00 | 0.00 | 0.00 | 60 | 1008.9 |
| 20260505004407 | 69 | 27 | 0.0 | 2.0 | 0.00 | 0.00 | 0.00 | 60 | 1009.1 |
| 20260505003904 | 69 | 4 | 1.0 | 4.0 | 0.00 | 0.00 | 0.00 | 60 | 1009.0 |
| 20260505003401 | 69 | 289 | 7.0 | 9.0 | 0.00 | 0.00 | 0.00 | 58 | 1009.1 |
| 20260505002857 | 69 | 82 | 2.0 | 2.0 | 0.00 | 0.00 | 0.00 | 58 | 1009.0 |
| 20260505002354 | 69 | 285 | 3.0 | 6.0 | 0.00 | 0.00 | 0.00 | 59 | 1008.9 |
| 20260505001853 | 70 | 314 | 3.0 | 4.0 | 0.00 | 0.00 | 0.00 | 58 | 1009.0 |
| 20260505001349 | 70 | 25 | 1.0 | 6.0 | 0.00 | 0.00 | 0.00 | 58 | 1009.2 |
| 20260505000847 | 70 | 34 | 1.0 | 3.0 | 0.00 | 0.00 | 0.00 | 56 | 1008.9 |
| 20260505000344 | 71 | 77 | 2.0 | 6.0 | 0.00 | 0.00 | 0.00 | 55 | 1009.2 |
| 20260504235841 | 71 | 268 | 1.0 | 6.0 | 0.00 | 0.00 | 0.00 | 55 | 1008.9 |
| 20260504235338 | 71 | 333 | 0.0 | 7.0 | 0.00 | 0.00 | 0.00 | 55 | 1008.8 |
| 20260504234834 | 72 | 52 | 1.0 | 6.0 | 0.00 | 0.00 | 0.00 | 54 | 1008.9 |
| 20260504234332 | 72 | 13 | 0.0 | 2.0 | 0.00 | 0.00 | 0.00 | 53 | 1008.8 |
| 20260504233828 | 73 | 299 | 1.0 | 3.0 | 0.00 | 0.00 | 0.00 | 53 | 1008.8 |
| 20260504233324 | 74 | 57 | 0.0 | 6.0 | 0.00 | 0.00 | 0.00 | 52 | 1008.7 |
| 20260504232821 | 75 | 294 | 2.0 | 3.0 | 0.00 | 0.00 | 0.00 | 51 | 1008.9 |
| 20260504232318 | 75 | 340 | 0.0 | 2.0 | 0.00 | 0.00 | 0.00 | 49 | 1008.8 |
| 20260504231815 | 76 | 347 | 2.0 | 3.0 | 0.00 | 0.00 | 0.00 | 48 | 1009.0 |
| 20260504231312 | 75 | 354 | 0.0 | 2.0 | 0.00 | 0.00 | 0.00 | 48 | 1009.0 |
| 20260504230808 | 77 | 105 | 2.0 | 3.0 | 0.00 | 0.00 | 0.00 | 50 | 1009.2 |
| 20260504230306 | 76 | 82 | 2.0 | 2.0 | 0.00 | 0.00 | 0.00 | 48 | 1009.1 |
| 20260504225804 | 77 | 336 | 1.0 | 3.0 | 0.00 | 0.00 | 0.00 | 47 | 1009.3 |
| 20260504225300 | 76 | 5 | 1.0 | 2.0 | 0.00 | 0.00 | 0.00 | 47 | 1009.4 |
| 20260504224757 | 76 | 114 | 4.0 | 7.0 | 0.00 | 0.00 | 0.00 | 48 | 1009.4 |
| 20260504224255 | 76 | 107 | 4.0 | 4.0 | 0.00 | 0.00 | 0.00 | 51 | 1009.4 |
| 20260504223751 | 76 | 289 | 4.0 | 4.0 | 0.00 | 0.00 | 0.00 | 51 | 1009.4 |
| 20260504223247 | 77 | 359 | 0.0 | 4.0 | 0.00 | 0.00 | 0.00 | 49 | 1009.5 |
| 20260504222744 | 77 | 13 | 0.0 | 1.0 | 0.00 | 0.00 | 0.00 | 48 | 1009.5 |
| 20260504222240 | 77 | 23 | 0.0 | 6.0 | 0.00 | 0.00 | 0.00 | 48 | 1009.5 |
| 20260504221738 | 78 | 312 | 1.0 | 4.0 | 0.00 | 0.00 | 0.00 | 48 | 1009.6 |
| 20260504221235 | 78 | 310 | 3.0 | 11.0 | 0.00 | 0.00 | 0.00 | 44 | 1009.6 |
| 20260504220731 | 78 | 46 | 1.0 | 6.0 | 0.00 | 0.00 | 0.00 | 45 | 1009.5 |
| 20260504220229 | 80 | 297 | 4.0 | 8.0 | 0.00 | 0.00 | 0.00 | 46 | 1009.8 |
| 20260504215726 | 80 | 15 | 1.0 | 3.0 | 0.00 | 0.00 | 0.00 | 44 | 1009.5 |
| 20260504215223 | 79 | 88 | 2.0 | 7.0 | 0.00 | 0.00 | 0.00 | 45 | 1009.5 |
| 20260504214718 | 80 | 279 | 3.0 | 8.0 | 0.00 | 0.00 | 0.00 | 43 | 1009.9 |
| 20260504214215 | 78 | 307 | 4.0 | 8.0 | 0.00 | 0.00 | 0.00 | 43 | 1009.6 |
| 20260504213712 | 77 | 85 | 2.0 | 3.0 | 0.00 | 0.00 | 0.00 | 44 | 1009.6 |
| 20260504213208 | 78 | 23 | 1.0 | 7.0 | 0.00 | 0.00 | 0.00 | 43 | 1010.0 |
| 20260504212705 | 78 | 262 | 2.0 | 6.0 | 0.00 | 0.00 | 0.00 | 43 | 1009.9 |
| 20260504212202 | 77 | 306 | 1.0 | 10.0 | 0.00 | 0.00 | 0.00 | 43 | 1010.2 |
| 20260504211659 | 78 | 261 | 6.0 | 8.0 | 0.00 | 0.00 | 0.00 | 43 | 1010.3 |
| 20260504211155 | 80 | 350 | 6.0 | 10.0 | 0.00 | 0.00 | 0.00 | 40 | 1010.2 |
| 20260504210653 | 80 | 282 | 2.0 | 6.0 | 0.00 | 0.00 | 0.00 | 40 | 1010.2 |
| 20260504210149 | 79 | 31 | 2.0 | 4.0 | 0.00 | 0.00 | 0.00 | 41 | 1010.3 |
| 20260504205647 | 79 | 211 | 1.0 | 4.0 | 0.00 | 0.00 | 0.00 | 41 | 1010.2 |
| 20260504205144 | 79 | 346 | 2.0 | 10.0 | 0.00 | 0.00 | 0.00 | 40 | 1010.4 |
| 20260504204642 | 79 | 89 | 2.0 | 6.0 | 0.00 | 0.00 | 0.00 | 42 | 1010.1 |
| 20260504204141 | 80 | 135 | 5.0 | 7.0 | 0.00 | 0.00 | 0.00 | 43 | 1010.3 |
| 20260504203639 | 80 | 56 | 0.0 | 0.0 | 0.00 | 0.00 | 0.00 | 44 | 1010.4 |
| 20260504203137 | 80 | 303 | 2.0 | 13.0 | 0.00 | 0.00 | 0.00 | 41 | 1010.5 |
| 20260504202637 | 81 | 56 | 2.0 | 4.0 | 0.00 | 0.00 | 0.00 | 43 | 1010.6 |
| 20260504202134 | 79 | 268 | 2.0 | 3.0 | 0.00 | 0.00 | 0.00 | 43 | 1010.6 |
| 20260504201631 | 81 | 53 | 3.0 | 14.0 | 0.00 | 0.00 | 0.00 | 40 | 1010.5 |
| 20260504201129 | 80 | 281 | 4.0 | 4.0 | 0.00 | 0.00 | 0.00 | 42 | 1011.0 |
| 20260504200626 | 79 | 287 | 4.0 | 6.0 | 0.00 | 0.00 | 0.00 | 42 | 1011.0 |
| 20260504200122 | 78 | 272 | 8.0 | 9.0 | 0.00 | 0.00 | 0.00 | 43 | 1010.9 |
| 20260504195618 | 77 | 75 | 3.0 | 7.0 | 0.00 | 0.00 | 0.00 | 45 | 1010.8 |
| 20260504195114 | 79 | 319 | 6.0 | 9.0 | 0.00 | 0.00 | 0.00 | 42 | 1011.1 |
| 20260504194611 | 79 | 75 | 2.0 | 4.0 | 0.00 | 0.00 | 0.00 | 42 | 1010.9 |
| 20260504194107 | 80 | 291 | 2.0 | 7.0 | 0.00 | 0.00 | 0.00 | 41 | 1011.1 |
| 20260504193603 | 79 | 99 | 6.0 | 8.0 | 0.00 | 0.00 | 0.00 | 45 | 1010.7 |
| 20260504193102 | 80 | 9 | 0.0 | 2.0 | 0.00 | 0.00 | 0.00 | 46 | 1011.0 |
| 20260504192600 | 80 | 43 | 4.0 | 13.0 | 0.00 | 0.00 | 0.00 | 43 | 1011.2 |
| 20260504192058 | 79 | 39 | 0.0 | 6.0 | 0.00 | 0.00 | 0.00 | 45 | 1011.2 |
| 20260504191556 | 79 | 342 | 3.0 | 8.0 | 0.00 | 0.00 | 0.00 | 41 | 1011.4 |
| 20260504191051 | 77 | 39 | 0.0 | 6.0 | 0.00 | 0.00 | 0.00 | 45 | 1011.3 |
| 20260504190548 | 77 | 14 | 2.0 | 3.0 | 0.00 | 0.00 | 0.00 | 43 | 1011.3 |
| 20260504190044 | 78 | 293 | 7.0 | 9.0 | 0.00 | 0.00 | 0.00 | 44 | 1011.4 |
| 20260504185541 | 77 | 285 | 4.0 | 6.0 | 0.00 | 0.00 | 0.00 | 44 | 1011.5 |
| 20260504185038 | 77 | 214 | 6.0 | 10.0 | 0.00 | 0.00 | 0.00 | 45 | 1011.4 |
| 20260504184533 | 76 | 78 | 4.0 | 4.0 | 0.00 | 0.00 | 0.00 | 47 | 1011.3 |
| 20260504184029 | 77 | 136 | 2.0 | 3.0 | 0.00 | 0.00 | 0.00 | 47 | 1011.7 |
| 20260504183526 | 77 | 342 | 0.0 | 3.0 | 0.00 | 0.00 | 0.00 | 48 | 1011.5 |
| 20260504183024 | 76 | 304 | 6.0 | 8.0 | 0.00 | 0.00 | 0.00 | 46 | 1011.6 |
| 20260504182521 | 76 | 276 | 2.0 | 6.0 | 0.00 | 0.00 | 0.00 | 45 | 1012.0 |
| 20260504182018 | 75 | 58 | 1.0 | 9.0 | 0.00 | 0.00 | 0.00 | 46 | 1011.8 |
| 20260504181515 | 76 | 145 | 1.0 | 10.0 | 0.00 | 0.00 | 0.00 | 49 | 1011.8 |
| 20260504181014 | 75 | 45 | 2.0 | 3.0 | 0.00 | 0.00 | 0.00 | 47 | 1012.0 |
| 20260504180512 | 75 | 326 | 3.0 | 6.0 | 0.00 | 0.00 | 0.00 | 46 | 1011.7 |
| 20260504180010 | 76 | 238 | 6.0 | 10.0 | 0.00 | 0.00 | 0.00 | 46 | 1012.0 |
| 20260504175507 | 76 | 63 | 0.0 | 3.0 | 0.00 | 0.00 | 0.00 | 51 | 1011.7 |
| 20260504175004 | 75 | 98 | 3.0 | 6.0 | 0.00 | 0.00 | 0.00 | 49 | 1011.7 |
| 20260504174502 | 75 | 286 | 4.0 | 7.0 | 0.00 | 0.00 | 0.00 | 49 | 1012.0 |
| 20260504173959 | 75 | 47 | 0.0 | 2.0 | 0.00 | 0.00 | 0.00 | 50 | 1012.1 |
| 20260504173455 | 75 | 126 | 2.0 | 4.0 | 0.00 | 0.00 | 0.00 | 50 | 1012.3 |
| 20260504172953 | 74 | 62 | 3.0 | 6.0 | 0.00 | 0.00 | 0.00 | 52 | 1012.3 |
| 20260504172448 | 73 | 162 | 2.0 | 6.0 | 0.00 | 0.00 | 0.00 | 50 | 1012.2 |
| 20260504171945 | 73 | 57 | 1.0 | 2.0 | 0.00 | 0.00 | 0.00 | 52 | 1012.3 |
| 20260504171443 | 73 | 339 | 6.0 | 15.0 | 0.00 | 0.00 | 0.00 | 48 | 1012.5 |
| 20260504170939 | 73 | 130 | 3.0 | 6.0 | 0.00 | 0.00 | 0.00 | 49 | 1012.5 |
| 20260504170436 | 73 | 71 | 1.0 | 2.0 | 0.00 | 0.00 | 0.00 | 52 | 1012.5 |
| 20260504160355 | 70 | 158 | 5.0 | 8.0 | 0.00 | 0.00 | 0.00 | 51 | 1013.0 |
| 20260504150820 | 68 | 21 | 0.0 | 6.0 | 0.00 | 0.00 | 0.00 | 52 | 1013.1 |
| 20260504150316 | 68 | 49 | 2.0 | 7.0 | 0.00 | 0.00 | 0.00 | 52 | 1013.2 |
| 20260504141246 | 67 | 6 | 2.0 | 3.0 | 0.00 | 0.00 | 0.00 | 53 | 1013.4 |
| 20260504140742 | 66 | 284 | 4.0 | 6.0 | 0.00 | 0.00 | 0.00 | 53 | 1013.8 |
| 20260504140238 | 66 | 163 | 1.0 | 4.0 | 0.00 | 0.00 | 0.00 | 54 | 1013.6 |
| 20260504130707 | 64 | 17 | 3.0 | 9.0 | 0.00 | 0.00 | 0.00 | 56 | 1013.6 |
| 20260504130203 | 63 | 151 | 1.0 | 6.0 | 0.00 | 0.00 | 0.00 | 55 | 1013.4 |
| 20260504120127 | 62 | 138 | 2.0 | 8.0 | 0.00 | 0.00 | 0.00 | 54 | 1013.0 |